Theta_e
323 324 326 328 329 334 336 344 346 344 346 347 351 354 358 354 353 354 352 349 348 348 345 341 340 339 340 342 346 347 347 350 349 348 346 347 349 351 350 350 350 347 351 350
326 326 326 327 329 330 335 340 344 343 345 344 349 352 352 354 354 352 353 352 350 348 343 342 341 341 340 342 345 347 348 351 350 348 347 347 349 349 351 351 351 351 350 350
326 327 327 326 329 332 337 339 342 344 339 339 339 345 348 348 350 354 353 352 349 346 343 345 344 343 342 343 344 347 349 351 351 349 351 350 351 352 351 352 352 352 352 351
326 326 326 326 333 334 335 336 339 338 339 343 339 345 348 348 349 352 353 353 350 347 345 346 347 346 345 344 343 345 349 350 352 352 350 347 347 349 350 351 352 351 352 352
326 326 326 328 332 332 332 332 337 336 336 339 339 340 344 348 350 352 350 352 351 349 348 347 348 348 347 345 341 344 349 349 351 350 352 351 350 349 350 350 352 353 349 351
327 325 327 328 330 332 334 333 336 336 336 337 337 338 344 345 347 346 348 350 351 350 350 348 348 349 348 346 345 343 349 348 347 351 344 349 352 350 351 349 353 352 352 352
329 329 327 329 332 333 335 335 335 334 336 336 334 334 345 343 342 341 340 348 349 351 350 349 348 349 348 346 346 348 349 350 348 350 354 343 348 350 352 354 352 351 351 352
329 329 328 330 333 334 334 335 334 334 333 333 333 339 343 341 341 343 344 346 348 349 351 351 350 349 349 348 348 347 350 352 354 352 351 353 349 353 349 350 349 350 350 351
328 328 325 327 331 331 334 335 332 332 332 331 337 341 339 341 343 344 346 349 350 347 350 352 351 351 350 350 350 350 351 351 356 355 350 353 351 346 350 348 345 352 351 350
327 327 324 324 325 327 329 332 334 332 335 333 336 340 341 343 344 344 347 350 349 351 351 350 351 352 351 351 352 353 353 354 356 357 357 355 353 350 346 353 349 347 348 351
325 327 324 323 325 326 329 331 333 332 332 334 336 340 339 342 341 344 345 344 345 347 347 349 350 349 352 352 351 352 354 356 357 358 357 356 356 357 356 355 354 347 346 351
324 325 325 324 324 325 326 329 332 333 333 331 333 335 337 339 338 343 341 339 339 340 342 343 345 349 352 353 353 353 352 353 354 357 357 357 357 356 357 357 355 351 344 343
324 324 327 325 324 324 325 326 328 330 330 333 333 337 336 338 337 340 339 339 336 336 337 340 340 340 342 346 352 352 352 352 353 354 356 357 357 357 357 356 356 354 348 343
320 323 325 326 327 324 325 325 326 327 330 331 332 337 338 338 338 338 336 336 335 335 335 335 337 338 338 340 346 350 351 351 351 353 354 356 357 358 357 357 356 356 353 349
323 323 323 324 322 324 325 325 324 325 327 329 335 337 336 335 335 335 334 333 332 331 331 331 332 334 336 336 343 345 350 350 350 351 352 354 356 357 358 358 358 357 356 354
322 324 324 322 320 320 322 322 321 322 324 327 334 333 331 328 327 328 328 328 328 328 328 327 327 328 330 335 335 340 345 347 349 350 351 352 353 354 355 357 358 358 357 355
322 324 324 323 322 320 320 321 321 321 322 324 331 330 327 327 324 325 325 324 324 324 325 326 325 324 324 325 330 333 335 343 346 349 350 350 350 351 352 354 355 355 355 356
321 322 323 322 322 321 322 321 320 320 322 324 327 326 326 323 321 323 322 322 322 322 322 321 322 323 323 323 322 326 332 331 340 344 348 349 350 350 350 351 353 353 354 354
318 320 321 321 321 320 320 320 320 320 323 322 324 321 320 319 320 321 320 318 318 318 319 320 319 319 321 323 322 322 325 330 330 331 338 342 346 347 350 350 351 351 351 352
317 320 321 321 320 320 322 318 318 318 323 320 320 320 318 317 319 324 319 316 316 316 316 317 317 318 319 320 321 322 323 323 328 328 325 325 330 339 343 345 348 352 351 352
319 319 321 322 321 322 320 317 316 318 323 318 317 317 316 318 317 316 315 315 315 315 315 315 315 316 317 318 320 321 322 323 324 325 325 325 323 323 328 338 345 346 347 349
321 322 322 322 322 322 318 316 317 321 317 315 314 314 315 314 314 314 314 313 314 314 314 314 314 315 315 316 317 319 321 322 322 325 324 322 315 321 323 321 334 337 342 345
322 320 325 321 324 321 317 317 317 316 315 313 313 312 312 312 312 312 312 313 312 312 312 313 313 314 315 315 316 318 319 321 320 319 325 321 317 312 317 320 321 333 335 342
317 317 320 319 319 318 316 315 313 312 313 312 311 311 311 312 312 312 311 312 311 311 311 312 313 313 313 313 313 315 316 318 320 320 323 326 323 322 313 318 325 326 332 336
319 318 318 318 317 315 315 312 312 312 312 311 311 311 311 311 311 310 310 310 310 310 310 309 309 310 310 312 312 313 315 316 319 320 321 323 324 322 321 318 320 322 324 327
315 317 319 321 316 315 315 313 313 313 312 312 311 311 311 311 310 310 309 309 309 309 308 308 308 308 309 309 311 312 312 315 318 320 320 321 322 322 321 319 319 319 316 317
Wind_Speed
20 13 17 20 21 20 17 20 15 12 15 12 10 13 21 19 16 18 16 20 20 23 23 21 20 19 18 17 17 17 16 16 15 12 11 10 8 7 8 7 6 6 5 4
13 18 16 15 16 19 15 21 14 13 9 9 16 19 16 19 24 21 20 22 23 23 24 22 21 20 19 19 18 18 17 16 16 12 12 9 11 9 7 8 5 7 6 6
15 15 16 13 14 13 17 16 13 15 8 16 14 14 11 12 14 31 23 21 25 24 26 25 23 21 19 19 19 20 20 18 18 13 11 11 9 8 6 7 5 8 7 6
16 10 17 13 15 17 18 16 10 12 15 12 15 9 19 20 16 12 18 22 23 27 28 27 25 22 20 18 20 19 19 19 18 17 11 10 8 8 10 8 10 6 8 8
17 12 13 16 17 16 11 15 3 14 14 11 16 8 8 21 18 16 20 20 24 32 27 29 26 24 22 18 19 20 20 20 18 19 15 8 11 9 9 7 9 8 8 8
16 13 13 18 16 16 5 13 9 9 14 14 12 14 12 8 12 4 18 21 22 25 25 29 27 28 23 21 20 20 20 19 20 18 20 15 10 7 8 6 6 7 7 7
13 10 17 14 17 14 11 15 11 11 11 11 16 16 11 10 7 2 11 23 20 26 27 22 28 31 25 25 23 21 21 21 21 19 17 17 15 10 7 4 7 7 8 12
12 14 12 13 17 12 17 20 12 12 13 14 17 9 9 10 10 8 7 5 23 19 32 26 25 27 28 26 24 22 23 22 21 22 21 18 16 12 10 10 11 9 8 11
14 11 7 6 14 5 18 20 23 12 14 14 13 19 12 12 12 13 14 8 9 19 16 24 27 26 26 27 25 24 24 25 22 21 22 21 19 17 13 12 11 11 11 17
6 11 13 10 8 14 13 15 19 9 13 18 16 17 13 14 13 12 14 25 22 18 12 4 4 14 23 25 23 23 24 24 22 21 21 21 20 19 20 16 16 15 13 9
10 5 11 6 15 16 12 13 20 13 15 13 11 10 19 14 14 14 24 19 17 18 19 14 7 10 7 17 20 21 22 21 21 21 22 21 20 19 18 19 18 16 18 16
4 7 12 17 5 6 11 13 16 11 19 13 4 10 14 16 18 24 20 16 18 20 19 15 15 12 7 3 11 17 22 21 20 20 21 22 21 20 20 20 19 18 16 18
2 9 6 6 8 9 11 10 12 18 17 14 15 12 10 17 16 20 21 17 16 17 18 18 18 18 16 12 5 7 14 17 19 19 21 21 21 20 21 22 20 21 19 16
5 12 9 4 9 15 18 7 12 13 11 12 8 24 19 16 16 17 18 16 16 17 17 18 20 20 19 16 7 10 8 3 10 16 20 21 21 21 21 21 22 21 23 21
5 9 5 3 6 7 10 14 7 15 16 9 20 20 17 16 13 14 17 14 15 16 17 18 18 18 20 20 13 1 2 1 6 6 13 19 19 19 20 21 21 21 22 23
3 4 9 7 1 1 6 7 5 6 2 7 23 17 15 14 15 12 12 12 13 14 15 16 17 17 18 19 19 14 5 4 3 5 8 14 10 19 20 20 22 22 23 24
5 5 7 12 6 6 11 13 11 9 5 9 13 18 14 11 9 9 10 11 11 12 12 13 14 15 16 16 16 19 17 8 4 6 7 11 15 15 17 19 21 23 23 23
5 9 9 11 5 11 3 6 3 8 9 6 14 12 13 10 8 12 8 8 9 9 10 10 11 12 12 13 14 14 15 17 9 5 7 8 9 11 16 20 21 22 24 24
5 7 7 11 10 5 7 5 6 11 11 2 12 10 10 8 10 11 7 7 6 7 8 9 10 11 11 11 12 14 12 13 15 13 8 9 9 10 11 13 18 22 25 25
5 7 6 7 11 15 14 11 3 1 11 10 7 9 7 7 10 12 3 4 5 6 7 9 11 11 10 11 12 12 12 12 12 14 15 13 10 8 11 16 13 15 22 22
7 7 10 10 8 4 11 9 6 9 6 12 9 8 4 2 13 6 4 6 7 8 8 9 10 11 11 12 13 13 13 12 13 13 13 15 14 11 8 4 5 11 18 20
7 5 6 9 10 10 13 8 5 10 13 12 8 7 7 6 3 4 5 6 7 8 9 10 11 11 12 13 14 15 15 15 15 15 15 15 16 16 14 14 9 8 10 13
5 2 4 3 5 8 9 6 11 10 12 8 8 7 5 3 2 2 4 6 7 9 10 10 11 12 12 11 13 17 17 18 19 17 18 17 18 19 19 17 14 11 10 9
7 2 2 4 8 5 9 7 6 6 8 8 6 5 3 2 2 3 5 5 7 9 11 12 11 10 11 13 15 18 20 20 20 21 18 20 18 18 20 18 13 12 11 12
7 8 8 9 4 7 9 9 9 9 8 7 5 3 2 1 2 4 5 6 7 8 9 12 12 12 14 15 17 18 18 19 21 22 20 20 21 18 19 19 17 18 18 16
12 9 7 5 9 13 9 16 12 12 9 7 5 4 1 1 2 5 5 5 7 8 10 11 12 14 16 18 16 18 15 17 19 22 22 21 21 21 20 19 21 20 25 27
Wind_Direction
197 211 208 201 210 230 206 228 198 167 151 205 142 119 138 153 160 168 186 182 187 195 178 179 180 181 181 179 175 173 171 175 166 172 170 172 177 175 169 165 191 178 159 176
185 218 211 227 214 238 245 216 199 128 150 248 151 159 136 163 158 169 185 196 190 194 176 178 179 179 182 183 180 177 177 181 170 173 174 180 186 180 193 225 183 159 167 182
210 206 227 217 205 211 232 217 188 158 172 244 159 139 155 168 181 164 179 192 189 186 180 176 179 179 184 187 187 185 182 183 172 181 186 190 189 141 168 197 189 171 177 181
231 219 205 205 195 216 205 235 181 192 191 203 219 179 171 163 167 190 178 185 184 183 192 181 179 185 185 188 190 188 186 185 186 178 189 208 179 187 180 179 178 175 174 177
212 195 200 205 216 204 234 211 243 173 216 200 185 226 175 156 171 174 181 184 182 181 199 188 188 189 186 185 187 189 187 189 190 190 174 205 204 224 155 185 175 168 199 175
242 210 192 210 213 192 262 160 210 210 233 242 195 227 182 124 113 144 176 185 193 170 186 194 191 188 189 186 185 189 191 196 191 199 194 188 205 216 197 204 174 186 184 174
218 223 197 226 201 186 183 191 187 202 215 224 208 209 85 97 96 181 198 176 196 177 177 199 186 187 188 189 190 190 200 202 203 203 204 210 199 210 237 177 213 207 212 192
198 184 177 207 232 177 203 208 198 189 205 203 185 154 111 103 104 78 94 186 179 204 170 178 189 189 190 196 195 198 202 214 206 208 212 215 215 206 218 223 219 214 216 182
183 160 115 238 237 273 198 234 234 274 200 214 120 100 118 115 109 112 100 84 132 185 182 175 194 187 192 195 199 201 204 221 211 214 216 217 218 205 210 216 227 222 225 233
270 130 188 173 250 244 266 220 240 241 238 208 150 159 136 139 108 90 86 57 37 36 40 46 236 200 195 197 201 206 208 213 212 211 214 216 219 221 206 209 212 214 221 250
304 197 168 170 206 206 213 241 235 231 256 213 154 112 118 119 118 109 70 55 51 44 40 50 40 255 240 210 204 206 210 213 215 216 215 215 217 216 217 211 216 225 220 215
292 274 162 202 80 314 295 230 235 239 227 267 315 99 121 131 122 99 86 74 58 50 45 39 32 39 82 123 206 222 209 213 219 220 218 220 219 215 217 215 214 222 232 226
355 259 150 182 187 210 237 216 268 233 262 236 252 138 146 120 108 102 108 101 81 70 63 57 45 34 28 25 124 181 208 220 216 217 219 219 221 220 217 221 215 216 230 238
285 262 277 8 275 194 212 219 235 270 241 250 258 138 154 130 121 115 102 89 80 72 63 56 52 42 33 31 19 186 156 163 219 220 216 217 219 221 221 222 223 219 222 232
303 262 267 61 6 339 179 199 206 243 257 312 129 135 136 127 109 100 107 93 82 71 61 56 50 44 40 31 27 10 157 275 205 219 227 214 218 222 224 223 224 225 224 227
262 212 288 212 259 255 247 201 217 281 336 259 111 108 101 122 123 108 99 91 77 63 54 50 46 42 37 34 26 18 356 243 208 193 228 244 220 222 227 227 225 227 228 229
261 247 222 256 181 259 245 237 211 216 212 305 166 142 142 130 121 115 102 82 68 59 48 40 34 31 28 27 22 18 11 356 277 217 229 238 240 243 232 231 229 230 232 227
233 238 238 254 162 236 95 10 315 197 150 92 96 126 134 133 139 121 93 70 49 38 32 28 22 16 17 16 15 18 15 7 3 289 255 238 226 237 238 235 232 233 234 236
255 234 230 250 212 153 162 171 176 184 158 209 135 143 147 151 145 135 106 56 40 17 4 358 356 356 358 358 358 360 10 9 4 359 336 283 262 253 240 240 247 246 240 238
208 263 255 216 263 228 81 102 65 233 178 169 168 156 158 190 210 111 96 8 355 343 338 335 332 336 331 337 337 340 345 352 350 355 350 355 342 294 274 260 253 241 240 242
201 217 226 231 239 118 106 126 159 208 113 143 153 139 156 236 55 85 48 16 356 341 329 317 322 315 317 321 322 321 322 327 326 329 332 333 332 332 323 284 254 274 261 253
206 204 218 244 230 233 132 141 230 95 127 130 130 122 114 103 76 67 39 18 7 358 346 333 318 305 301 305 311 308 307 302 305 311 312 313 316 310 313 307 299 284 291 283
276 268 262 309 36 93 139 76 126 138 140 131 132 130 119 111 63 8 350 349 348 348 343 340 327 314 310 303 300 301 299 302 296 291 297 298 301 305 302 301 311 310 315 291
235 270 260 322 177 168 149 135 155 164 139 144 138 129 124 100 48 359 338 335 333 336 338 341 332 323 310 307 303 294 293 293 292 289 286 292 291 296 297 291 288 290 281 279
252 162 220 238 143 177 192 186 169 157 151 150 140 132 110 84 32 357 342 331 325 322 329 325 325 321 319 317 313 309 298 287 286 284 282 278 285 285 286 290 283 276 267 274
236 229 215 237 216 205 221 196 186 184 184 180 178 174 165 38 5 349 339 326 317 314 316 321 321 315 313 311 311 312 296 273 274 276 274 274 273 279 278 277 286 286 284 279